Погода в Петрозаводске

Погода в Петрозаводске : погода сейчас, прогноз погоды и архив. Всё, что Вы хотите узнать о погоде в Петрозаводске!

Хотите узнать прогноз погоды в Петрозаводске? Тогда Вам сюда: Погода в Петрозаводске

Поиск расширенной информации на нашем сайте:

Другие новости

Новости СМИ2

Главная страница сайта

Новости сайта

03.07.2017

Напоминаем, что на нашем специализированном сайте Метеоцентр.Азия вы можете получить высокодетализированные автоматические прогнозы погоды по пунктам России, СНГ и мира в авиационном формате (включающие направление и скорость ветра, видимость, явления погоды, количество и форму облачности, нижнюю и верхнюю границу облачности).

Рекомендуем: консультация юриста бесплатно круглосуточно консультация юриста бесплатно круглосуточно онлайн

Погода в Петрозаводске - сегодня

Время (UTC), дата Ветер
(°,м/с) 
Видим.   Явления Облачность Т
(°С)
Тd
(°С)
f(%) Тe
(°С)
Pmin
(гПа)
dP
(гПа)
Po
(мм)
O2
(г/м3)
Тmin Tmax R s Состояние
почвы
18 20.08.17 230 (ЮЗ) 20000 м    9/0 средняя 
[Ac As]
+16.9 +13.8 82 +25  1016.3  0.3  752  283    +21.9       
21 20.08.17 250 (З) 20000 м    10/4 300 м средняя 
[Sc|Ac und]
+16.7 +14.8 89 +26  1016.2  0.1  752  283           
00 21.08.17 230 (ЮЗ) 20000 м    8/5 300 м средняя 
[Sc|Ac trans]
+15.2 +13.3 88 +23  1016.2  752  284           
03 21.08.17 180 (Ю) 20000 м  в посл. час ливневой дождь  10/6 300 м кучево-дожд., средняя 
[Cb cap|Ac und]
+13.4 +12.3 93 +19  1016.2  752  287  +13.4       
06 21.08.17 280 (З) 20000 м  в посл. час ливневой дождь  10/6 600 м кучево-дожд., средняя 
[Cb cap|Ac und]
+13.8 +12.5 92 +20  1016.1  -0.1  752  286  +13.4      влажная 
09 21.08.17 тихо ()   20000 м  в посл. час ливневой дождь  10/3 600 м кучево-дожд., средняя 
[Cb cap|Ac As]
+14.9 +13.3 90 +21  1016  752  285           
12 21.08.17 070 (В) 20000 м  {ливн. осадки}  8/4 600 м средняя, верхняя 
[Cu hum|Ac trans|Ci fib]
+17.9 +13.3 74 +24  1015.3  -0.6  752  282           
15 21.08.17 100 (В) 20000 м    9/3 600 м средняя, верхняя 
[Sc|Ac trans|Ci fib]
+17.3 +13.7 79 +24  1014.2  -1.1  751  282      0.1     
18 21.08.17 060 (СВ) 20000 м    10/5 600 м средняя 
[Sc|Ac und]
+14.9 +13.8 93 +23  1013.4  -0.9  750  284    +18.3  0.0     
21 21.08.17 140 (ЮВ) 20000 м    4/3 600 м средняя 
[Sc|Ac trans]
+15.2 +14.2 94 +24  1013  -0.4  750  283           
00 22.08.17 270 (З) н/о    н/о 
+15.7 +15 96 +25  1014.3  1.3  751  283           
03 22.08.17 160 (Ю) 19000 м    10/6 300 м средняя 
[Sc|Ac As]
+14.3 +14 98 +22  1014.4  751  285  +13.4         
06 22.08.17 230 (ЮЗ) 30000 м    9/0 средняя, верхняя 
[Ac trans|Ci fib]
+18 +15.4 85 +28  1014.1  0.1  751  281  +13.4        влажная 
09 22.08.17 090 (В) 35000 м    10/5 600 м кучево-дожд., средняя 
[Cb calv|Ac As]
+19.4 +15.6 79 +30  1013.3  -0.7  750  279           
12 22.08.17 080 (В) 40000 м    10/4 600 м кучево-дожд., средняя, верхняя 
[Cb calv|Ac trans|Ci fib]
+20.1 +16.3 79 +31  1013.3  750  278           
15 22.08.17 080 (В) 40000 м    10/4 600 м кучево-дожд., средняя 
[Cb calv|Ac As]
+18.5 +16 85 +29  1012.5  -0.9  750  279           
18 22.08.17 110 (В) 12000 м    10/0 средняя 
[Ac As]
+17.1 +16.4 96 +30  1012.4  0.1  749  281    +20.3       
21 22.08.17 260 (З) 20000 м  зарница  10/4 600 м кучево-дожд., средняя 
[Cb cap|Ac As]
+15.7 +15.5 99 +26  1012.3  -0.2  749  282           
00 23.08.17 170 (Ю) 20000 м  {гроза}  9/0 средняя 
[Ac trans]
+16 +15.2 95 +26  1012.1  -0.2  749  282           
03 23.08.17 270 (З) 0900 м  туман  ?/?  
+15.5 +15.2 98 +26  1011.2  -0.9  749  282  +14.8         
06 23.08.17 070 (В) 12000 м  {туман}  10/8 300 м средняя 
[Sc|Ac und]
+17.6 +16.2 92 +29  1010.3  -0.8  748  280  +14.8        влажная 
09 23.08.17 100 (В) 15000 м    10/8 360 м средняя 
[Sc|Ac und]
+19.5 +15.8 79 +31  1009.4  -0.8  747  278           
12 23.08.17 090 (В) 15000 м    10/5 300 м средняя, верхняя 
[Sc|Ac trans|Ci fib]
+19.9 +16.2 79 +32  1008.5  -0.8  747  277           
15 23.08.17 080 (В) 20000 м    8/0 средняя, верхняя 
[Ac cast|Ci fib]
+20.5 +16.9 80 +33  1007.2  -1.3  746  276           
18 23.08.17 080 (В) 15000 м    8/0 средняя 
[Ac cast]
+17.7 +16.4 92 +30  1006.9  -0.4  745  278    +21.1       
Время (UTC), дата Ветер
(°,м/с) 
Видим.   Явления Облачность Т
(°С)
Тd
(°С)
f(%) Тe
(°С)
Pmin
(гПа)
dP
(гПа)
Po
(мм)
O2
(г/м3)
Тmin Tmax R s Состояние
почвы

Для получения пояснительной информации подведите курсор к названию столбца.

ПОГОДА в Петрозаводске - архив

Всё, что Вы хотите узнать о погоде в Петрозаводске - удобно и подробно!

Выберите нужную дату (начиная с 1 января 2015* года) и нажмите кнопку "Найти".
Будут отображены архивные сводки погоды по пункту Петрозаводск, начиная с указанной даты.


Отображать данные в формате CSV (для использования в таблицах Excel)


Внимание! Наш архив погоды предназначен исключительно для личного некоммерческого использования в познавательных целях. Если Вам необходимы официальные справки о состоянии погоды (для производственных, юридических, коммерческих и т.п. целей), обращайтесь в органы Росгидромета.

*Примечание: данная дата относится к архиву по метеостанциям СССР (Россия, СНГ, Балтия).
Архив по метеостанциям Зарубежной Европы и Азии (кроме Китая) хранится 10 дней, по другим регионам земного шара (Китай, Африка, Америка, Австралия, Океания) - 1 день.

Петрозаводск - район местоположения метеостанции


Название, широта, долгота, высота метеостанции:
Петрозаводск 61.8°ш. 34.3°д. 110 м над ур. моря [Российская Федерация]

Дополнительная информация

В oтличие oт бoльшинства пoгoдных сайтoв мы публикуем пoдрoбную метеoинфoрмацию в детальнoм прoфессиoнальнoм фoрмате.

Характеристики температуры и влажнoсти вoздуха измеряются на высoте 2 м в тени вдали oт зданий и деревьев.
Скoрoсть ветра измеряется на высoте 10 м (на урoвне рoста челoвека скoрoсть ветра ниже в 1.5-2 раза). Если метеoстанция нахoдится в гoрoде или в лесу, тo скoрoсть ветра занижена на 2-4 м/с пo сравнению с oткрытым местoм. Скoрoсть ветра над акватoриями крупных рек и oзёр, а также на вершинах хoлмoв на 2-5 м/с выше, чем в oбычных услoвиях.
Атмoсфернoе давление в разных тoчках местнoсти мoжет значительнo oтличаться oт давления на метеoстанции, в зависимoсти oт услoвий рельефа (при пoдъёме на 10 м давление пoнижается примернo на 1 мм рт.ст.).